TimeEDT,TemperatureF,Dew PointF,Humidity,Sea Level PressureIn,VisibilityMPH,Wind Direction,Wind SpeedMPH,Gust SpeedMPH,PrecipitationIn,Events,Conditions,WindDirDegrees,DateUTC
12:15 AM,59.0,59.0,100,30.07,7.0,Calm,Calm,-,N/A,,Clear,0,2014-03-23 04:15:00
12:35 AM,59.0,59.0,100,30.06,7.0,Calm,Calm,-,N/A,,Clear,0,2014-03-23 04:35:00
12:55 AM,59.0,59.0,100,30.06,5.0,SW,4.6,-,N/A,,Clear,230,2014-03-23 04:55:00
1:15 AM,59.0,59.0,100,30.06,7.0,Calm,Calm,-,N/A,,Clear,0,2014-03-23 05:15:00
1:35 AM,59.0,59.0,100,30.05,10.0,Calm,Calm,-,N/A,,Clear,0,2014-03-23 05:35:00
1:55 AM,59.0,59.0,100,30.04,7.0,Calm,Calm,-,N/A,,Clear,0,2014-03-23 05:55:00
2:15 AM,59.0,59.0,100,30.04,5.0,Calm,Calm,-,N/A,,Clear,0,2014-03-23 06:15:00
2:35 AM,59.0,59.0,100,30.04,1.0,Calm,Calm,-,N/A,,Mist,0,2014-03-23 06:35:00
2:55 AM,57.2,57.2,100,30.04,0.2,Calm,Calm,-,N/A,Fog,Fog,0,2014-03-23 06:55:00
3:15 AM,59.0,59.0,100,30.02,0.5,Calm,Calm,-,N/A,Fog,Fog,0,2014-03-23 07:15:00
3:35 AM,55.4,55.4,100,30.02,0.2,Calm,Calm,-,N/A,Fog,Fog,0,2014-03-23 07:35:00
3:55 AM,55.4,55.4,100,30.01,0.2,Calm,Calm,-,N/A,Fog,Fog,0,2014-03-23 07:55:00
4:15 AM,55.4,55.4,100,30.00,2.0,Calm,Calm,-,N/A,,Clear,0,2014-03-23 08:15:00
4:35 AM,53.6,53.6,100,30.01,2.5,Calm,Calm,-,N/A,,Clear,0,2014-03-23 08:35:00
4:55 AM,51.8,51.8,100,30.01,0.2,Calm,Calm,-,N/A,Fog,Fog,0,2014-03-23 08:55:00
5:15 AM,53.6,53.6,100,30.01,0.2,Calm,Calm,-,N/A,Fog,Fog,0,2014-03-23 09:15:00
5:35 AM,53.6,53.6,100,30.01,0.2,Calm,Calm,-,N/A,Fog,Fog,0,2014-03-23 09:35:00
5:55 AM,53.6,53.6,100,30.01,0.2,Calm,Calm,-,N/A,Fog,Fog,0,2014-03-23 09:55:00
6:15 AM,51.8,51.8,100,30.01,0.5,Calm,Calm,-,N/A,Fog,Fog,0,2014-03-23 10:15:00
6:35 AM,53.6,53.6,100,30.01,1.2,Calm,Calm,-,N/A,,Scattered Clouds,0,2014-03-23 10:35:00
6:55 AM,51.8,51.8,100,30.02,0.2,Calm,Calm,-,N/A,Fog,Fog,0,2014-03-23 10:55:00
7:15 AM,51.8,51.8,100,30.02,0.2,Calm,Calm,-,N/A,Fog,Fog,0,2014-03-23 11:15:00
7:35 AM,53.6,53.6,100,30.02,0.2,Calm,Calm,-,N/A,Fog,Fog,0,2014-03-23 11:35:00
7:55 AM,53.6,53.6,100,30.03,0.2,Calm,Calm,-,N/A,Fog,Fog,0,2014-03-23 11:55:00
8:15 AM,55.4,55.4,100,30.03,0.2,Calm,Calm,-,N/A,Fog,Fog,0,2014-03-23 12:15:00
8:35 AM,55.4,55.4,100,30.03,1.8,Calm,Calm,-,N/A,,Scattered Clouds,0,2014-03-23 12:35:00
8:55 AM,57.2,57.2,100,30.03,3.0,Calm,Calm,-,N/A,,Mostly Cloudy,0,2014-03-23 12:55:00
9:15 AM,59.0,59.0,100,30.04,7.0,Calm,Calm,-,N/A,,Overcast,0,2014-03-23 13:15:00
9:35 AM,60.8,60.8,100,30.04,5.0,Calm,Calm,-,N/A,,Scattered Clouds,0,2014-03-23 13:35:00
9:55 AM,60.8,60.8,100,30.03,4.0,Calm,Calm,-,N/A,,Scattered Clouds,0,2014-03-23 13:55:00
10:15 AM,62.6,62.6,100,30.05,10.0,Calm,Calm,-,N/A,,Mostly Cloudy,0,2014-03-23 14:15:00
10:35 AM,64.4,64.4,100,30.05,10.0,Calm,Calm,-,N/A,,Overcast,0,2014-03-23 14:35:00
10:55 AM,64.4,64.4,100,30.05,10.0,WSW,6.9,-,N/A,,Mostly Cloudy,240,2014-03-23 14:55:00
11:15 AM,66.2,66.2,100,30.05,10.0,WSW,6.9,-,N/A,,Mostly Cloudy,240,2014-03-23 15:15:00
11:35 AM,68.0,66.2,94,30.05,10.0,West,6.9,-,N/A,,Overcast,260,2014-03-23 15:35:00
11:55 AM,69.8,66.2,88,30.05,10.0,WSW,8.1,-,N/A,,Overcast,250,2014-03-23 15:55:00
12:15 PM,69.8,64.4,83,30.05,10.0,WSW,9.2,-,N/A,,Overcast,250,2014-03-23 16:15:00
12:35 PM,71.6,64.4,78,30.04,10.0,WSW,6.9,-,N/A,,Overcast,250,2014-03-23 16:35:00
12:55 PM,71.6,64.4,78,30.05,10.0,WSW,8.1,-,N/A,,Overcast,250,2014-03-23 16:55:00
1:15 PM,71.6,64.4,78,30.04,10.0,West,8.1,-,N/A,,Overcast,270,2014-03-23 17:15:00
1:35 PM,71.6,64.4,78,30.04,10.0,WSW,9.2,-,N/A,,Overcast,250,2014-03-23 17:35:00
1:55 PM,71.6,64.4,78,30.04,10.0,West,9.2,-,N/A,,Overcast,260,2014-03-23 17:55:00
2:15 PM,71.6,64.4,78,30.02,10.0,West,10.4,-,N/A,,Mostly Cloudy,260,2014-03-23 18:15:00
2:35 PM,71.6,64.4,78,30.02,10.0,West,8.1,-,N/A,,Mostly Cloudy,260,2014-03-23 18:35:00
2:55 PM,73.4,64.4,73,29.99,10.0,SW,8.1,-,N/A,,Scattered Clouds,230,2014-03-23 18:55:00
3:15 PM,73.4,64.4,73,29.97,10.0,WSW,9.2,17.3,N/A,,Mostly Cloudy,240,2014-03-23 19:15:00
3:35 PM,73.4,62.6,69,29.97,10.0,West,6.9,-,N/A,,Mostly Cloudy,270,2014-03-23 19:35:00
3:55 PM,73.4,64.4,73,29.97,10.0,WSW,10.4,-,N/A,,Mostly Cloudy,250,2014-03-23 19:55:00
4:15 PM,73.4,62.6,69,29.97,10.0,WSW,9.2,16.1,N/A,,Mostly Cloudy,250,2014-03-23 20:15:00
4:35 PM,73.4,62.6,69,29.96,10.0,WNW,6.9,-,N/A,,Overcast,290,2014-03-23 20:35:00
4:55 PM,71.6,64.4,78,29.97,10.0,NW,9.2,-,N/A,,Overcast,310,2014-03-23 20:55:00
5:15 PM,71.6,62.6,73,29.97,10.0,NW,10.4,18.4,N/A,,Overcast,320,2014-03-23 21:15:00
5:35 PM,73.4,62.6,69,29.97,10.0,NW,10.4,-,N/A,,Scattered Clouds,310,2014-03-23 21:35:00
5:55 PM,73.4,60.8,65,29.96,10.0,NW,8.1,-,N/A,,Scattered Clouds,320,2014-03-23 21:55:00
6:15 PM,73.4,60.8,65,29.97,10.0,NNW,9.2,-,N/A,,Scattered Clouds,330,2014-03-23 22:15:00
6:35 PM,73.4,60.8,65,29.96,10.0,West,6.9,-,N/A,,Clear,280,2014-03-23 22:35:00
6:55 PM,71.6,60.8,69,29.97,10.0,WNW,9.2,-,N/A,,Clear,300,2014-03-23 22:55:00
7:15 PM,71.6,60.8,69,29.97,10.0,WNW,9.2,-,N/A,,Clear,290,2014-03-23 23:15:00
7:35 PM,69.8,60.8,73,29.97,10.0,West,6.9,-,N/A,,Clear,280,2014-03-23 23:35:00
7:55 PM,68.0,60.8,78,29.99,10.0,WNW,5.8,-,N/A,,Clear,290,2014-03-23 23:55:00
8:15 PM,66.2,60.8,83,30.00,10.0,WSW,6.9,-,N/A,,Clear,250,2014-03-24 00:15:00
8:35 PM,64.4,64.4,100,30.01,10.0,WSW,5.8,-,N/A,,Clear,240,2014-03-24 00:35:00
8:55 PM,64.4,64.4,100,30.01,10.0,WSW,6.9,-,N/A,,Clear,240,2014-03-24 00:55:00
9:15 PM,64.4,64.4,100,30.01,7.0,WSW,3.5,-,N/A,,Clear,240,2014-03-24 01:15:00
9:35 PM,64.4,64.4,100,30.03,7.0,West,4.6,-,N/A,,Scattered Clouds,260,2014-03-24 01:35:00
9:55 PM,64.4,64.4,100,30.04,5.0,West,5.8,-,N/A,,Mostly Cloudy,260,2014-03-24 01:55:00
10:15 PM,64.4,64.4,100,30.05,7.0,WSW,3.5,-,N/A,,Scattered Clouds,240,2014-03-24 02:15:00
10:35 PM,64.4,64.4,100,30.04,5.0,Calm,Calm,-,N/A,,Clear,0,2014-03-24 02:35:00
10:55 PM,62.6,62.6,100,30.05,5.0,Calm,Calm,-,N/A,,Clear,0,2014-03-24 02:55:00
11:15 PM,62.6,62.6,100,30.05,7.0,NNW,4.6,-,N/A,,Clear,330,2014-03-24 03:15:00
11:35 PM,64.4,62.6,94,30.05,10.0,NNW,6.9,-,N/A,,Clear,340,2014-03-24 03:35:00
11:55 PM,64.4,60.8,88,30.05,10.0,North,6.9,-,N/A,,Clear,360,2014-03-24 03:55:00